"Pseudo-MPEC" for P11dCa6

Created 2021 Feb 25 13:07:07 UT using Find_Orb

Click here for an explanation of pseudo-MPECs

 
 Astrometry: 
     P11dCa6  C2021 02 22(\]jd=`:4_4P=*^Tav,p7wU)vDcg#kIa54XO(F4qv,!5`56_T97cF51
     P11dCa6  C2021 02 22w3a:d_$%u87$@]9k4yFI9c8Oex]Y5FVaJWK/[+^MBcGV9nU_=HUQF51
     P11dCa6  C2021 02 22h-4!v41Su[0DE+)rNl?.HXWsY@(0bjD=f2Nsac]a.(GkO]t]_,9pF51
     P11dCa6 |C2021 02 23$2Oyn_;Astrometry^]Y%oax0%redacted;\qgrXsG;m*TywJXcy807
     P11dCa6 |C2021 02 23WX8rpO+uDGNTL0%9Nxq!Efn*@H[DEw]W5/'doWb+phoO[w',yMrG807
     P11dCa6 |C2021 02 231loF6OE3fVv^fk;(aROI'dF/py6clickhG!4GJFm]2I_ba%SVa:V807
     P11dCa6 ^C2021 02 239C%@a)W%?yLt3CB]iitU838qVyfglcF3KLp\Rj\XdIU`-xO[Thor695
     P11dCa6 ^C2021 02 23B-CRacsS'@@,l7hx[$1ENf,[?5sW1EysB,Z,Yggy.sFyaherexZf695
     P11dCa6 ^C2021 02 23/Y:P?OIUEvf1Af*cLI+_6_G/+FK)Z7mn+wg4FvYBcj=)NZUF*:`t695
     P11dCa6 ^C2021 02 24y-^^for./Bhi6_f$sfT,b=Q%FY9explanationUZwJ@r#M0b5s^X695
     P11dCa6 ^C2021 02 24MMn2mL_3'kuxvTyVmT6kX0=\7MxM6+Mcy_0xC-Cr+@*Ps9fKP5-g695
     P11dCa6 ^C2021 02 24_:uyi8y(H%Ef$=KDCVtqI:itjY\1uulq%[c$2]x1#)O_Nw.hA\2x695
     P11dCa6 ^C2021 02 25On$Ae)WNbu:ys#P/RP57%gyG.5ZbT2k63A?jI[?d[8j^BSjsh[xU695
     P11dCa6 ^C2021 02 25ZE=oY%#kKY'^!(J\Ghq9XU\eyUSZ-/n,f,u1WUmoUnwY*xGkY1'D695

Station data:
(695) Kitt Peak  (N31.958398 W111.594670)  US/Arizona.
(807) Cerro Tololo Observatory, La Serena  (S30.169136 W70.805900)  Chile.
(F51) Pan-STARRS 1, Haleakala  (N20.707235 W156.255910)  US/Hawaii.
   Observers N. Primak, A. Schultz, S. Watters, J. Thiel, T. Goggia. Measurer
   PS1 Science Consortium. 1.8-m Ritchey-Chrétien + CCD.

Orbital elements:  P11dCa6
   Perihelion 2020 Jul 15.278752 +/- 1.94976 TT =  6:41:24 (JD 2459045.778752)
Epoch 2021 Feb 25.0 TT = JDT 2459270.5   Earth MOID: 0.0063   Ma: 0.0655
M 143.99358765 +/- 1.5334320        (J2000 ecliptic)          AutoNEOCP
n   0.64076534 +/- 0.00366621       Peri.  221.17961 +/- 1.0742770
a   1.33250865 +/- 0.00508216       Node   149.38668 +/- 0.3095302
e   0.2877803 +/- 0.0030214         Incl.   21.73237 +/- 0.3741947
P   1.54/561.82d           H 20.6   G  0.15   U  9.0  
q 0.94903888 +/- 0.00440878    Q 1.71597842 +/- 0.00878735
From 14 observations 2021 Feb. 22-25; mean residual 0".15
Residuals in arcseconds: 
210222 F51  .12+  .23+    210223 807  .10+  .11-    210224 695  .06-  .09+    
210222 F51  .11-  .31-    210223 695  .10+  .08+    210224 695  .12-  .13-    
210222 F51  .13-  .10+    210223 695  .06+  .11+    210225 695  .07+  .25+    
210223 807  .07-  .18-    210223 695  .17+  .25+    210225 695  .13+  .23-    
210223 807  .01+  .06-    210224 695  .31-  .00     

Ephemerides (geocentric):
Date (UTC) HH   RA              Dec         delta   r     elong  mag " sig PA
---- -- -- --  -------------   -----------  ------ ------ -----  --- ---- ---
2021 02 25 13  12 42 15.916   +13 36 27.97  .74591 1.6713 148.3 22.0 .305  95
2021 02 25 14  12 42 13.714   +13 37 47.86  .74579 1.6714 148.4 22.0 .325  95
2021 02 25 15  12 42 11.508   +13 39 07.77  .74567 1.6714 148.4 22.0 .346  94
2021 02 25 16  12 42 09.296   +13 40 27.69  .74555 1.6715 148.5 22.0 .367  94
2021 02 25 17  12 42 07.078   +13 41 47.64  .74543 1.6716 148.5 22.0 .389  93
2021 02 25 18  12 42 04.856   +13 43 07.60  .74532 1.6716 148.5 22.0 .411  93
2021 02 25 19  12 42 02.628   +13 44 27.58  .74520 1.6717 148.6 22.0 .434  92
2021 02 25 20  12 42 00.396   +13 45 47.57  .74508 1.6718 148.6 22.0 .457  92
2021 02 25 21  12 41 58.158   +13 47 07.59  .74497 1.6718 148.7 22.0 .481  92
2021 02 25 22  12 41 55.915   +13 48 27.62  .74485 1.6719 148.7 22.0 .505  91
2021 02 25 23  12 41 53.667   +13 49 47.67  .74474 1.6720 148.7 22.0 .529  91
2021 02 26 00  12 41 51.413   +13 51 07.74  .74462 1.6720 148.8 22.0 .555  91
2021 02 26 01  12 41 49.155   +13 52 27.82  .74451 1.6721 148.8 22.0 .580  91
2021 02 26 02  12 41 46.891   +13 53 47.92  .74440 1.6722 148.9 22.0 .606  90
2021 02 26 03  12 41 44.622   +13 55 08.04  .74428 1.6722 148.9 22.0 .633  90
2021 02 26 04  12 41 42.348   +13 56 28.17  .74417 1.6723 149.0 22.0 .660  90
2021 02 26 05  12 41 40.069   +13 57 48.32  .74406 1.6724 149.0 22.0 .687  90
2021 02 26 06  12 41 37.785   +13 59 08.49  .74395 1.6724 149.0 22.0 .715  89
2021 02 26 07  12 41 35.495   +14 00 28.67  .74383 1.6725 149.1 22.0 .744  89
2021 02 26 08  12 41 33.201   +14 01 48.87  .74372 1.6726 149.1 22.0 .773  89
2021 02 26 09  12 41 30.901   +14 03 09.09  .74361 1.6726 149.2 22.0 .802  89
2021 02 26 10  12 41 28.596   +14 04 29.32  .74350 1.6727 149.2 22.0 .832  89
2021 02 26 11  12 41 26.286   +14 05 49.56  .74339 1.6727 149.2 22.0 .862  89
2021 02 26 12  12 41 23.971   +14 07 09.82  .74328 1.6728 149.3 22.0 .893  88
2021 02 26 13  12 41 21.651   +14 08 30.10  .74317 1.6729 149.3 22.0 .925  88
2021 02 26 14  12 41 19.326   +14 09 50.39  .74306 1.6729 149.4 22.0 .956  88
2021 02 26 15  12 41 16.996   +14 11 10.70  .74296 1.6730 149.4 22.0 .989  88
2021 02 26 16  12 41 14.660   +14 12 31.02  .74285 1.6731 149.4 22.0 1.02  88
2021 02 26 17  12 41 12.320   +14 13 51.35  .74274 1.6731 149.5 22.0 1.05  88
2021 02 26 18  12 41 09.974   +14 15 11.70  .74263 1.6732 149.5 22.0 1.09  87
2021 02 26 19  12 41 07.623   +14 16 32.06  .74253 1.6733 149.6 22.0 1.12  87
2021 02 26 20  12 41 05.267   +14 17 52.44  .74242 1.6733 149.6 22.0 1.16  87
2021 02 26 21  12 41 02.906   +14 19 12.83  .74231 1.6734 149.7 22.0 1.19  87
2021 02 26 22  12 41 00.540   +14 20 33.23  .74221 1.6735 149.7 22.0 1.23  87
2021 02 26 23  12 40 58.169   +14 21 53.65  .74210 1.6735 149.7 22.0 1.26  87
2021 02 27 00  12 40 55.793   +14 23 14.08  .74200 1.6736 149.8 22.0 1.30  87
2021 02 27 01  12 40 53.411   +14 24 34.52  .74189 1.6737 149.8 22.0 1.34  87
2021 02 27 02  12 40 51.025   +14 25 54.98  .74179 1.6737 149.9 22.0 1.37  86
2021 02 27 03  12 40 48.633   +14 27 15.45  .74169 1.6738 149.9 22.0 1.41  86
2021 02 27 04  12 40 46.237   +14 28 35.93  .74158 1.6739 149.9 22.0 1.45  86
2021 02 27 05  12 40 43.835   +14 29 56.43  .74148 1.6739 150.0 22.0 1.49  86
2021 02 27 06  12 40 41.429   +14 31 16.93  .74138 1.6740 150.0 22.0 1.53  86
2021 02 27 07  12 40 39.017   +14 32 37.45  .74128 1.6741 150.1 22.0 1.57  86
2021 02 27 08  12 40 36.600   +14 33 57.98  .74118 1.6741 150.1 22.0 1.61  86
2021 02 27 09  12 40 34.178   +14 35 18.52  .74107 1.6742 150.1 22.0 1.65  86
2021 02 27 10  12 40 31.751   +14 36 39.08  .74097 1.6742 150.2 22.0 1.69  86
2021 02 27 11  12 40 29.320   +14 37 59.64  .74087 1.6743 150.2 22.0 1.73  86
2021 02 27 12  12 40 26.883   +14 39 20.22  .74077 1.6744 150.2 22.0 1.77  85